TimeMDT,TemperatureF,Dew PointF,Humidity,Sea Level PressureIn,VisibilityMPH,Wind Direction,Wind SpeedMPH,Gust SpeedMPH,PrecipitationIn,Events,Conditions,WindDirDegrees,DateUTC
1:53 AM,25.0,18.0,75,30.03,10.0,North,18.4,-,N/A,,Overcast,10,2013-03-23 07:53:00
2:53 AM,21.9,15.1,75,30.05,10.0,North,16.1,21.9,N/A,,Overcast,360,2013-03-23 08:53:00
3:21 AM,21.2,14.0,74,29.98,10.0,North,20.7,-,N/A,,Overcast,360,2013-03-23 09:21:00
3:53 AM,19.9,12.0,71,30.06,10.0,North,19.6,26.5,N/A,,Overcast,360,2013-03-23 09:53:00
4:53 AM,19.0,10.0,68,30.09,10.0,North,17.3,27.6,N/A,,Overcast,350,2013-03-23 10:53:00
5:22 AM,19.4,8.6,63,30.02,10.0,North,19.6,24.2,N/A,,Overcast,360,2013-03-23 11:22:00
5:53 AM,18.0,9.0,68,30.13,10.0,North,23.0,27.6,N/A,,Overcast,10,2013-03-23 11:53:00
6:53 AM,18.0,9.0,68,30.16,10.0,North,15.0,-,N/A,,Overcast,360,2013-03-23 12:53:00
7:53 AM,18.0,8.1,65,30.19,10.0,North,15.0,23.0,0.00,,Overcast,360,2013-03-23 13:53:00
8:09 AM,17.6,8.6,68,30.08,10.0,North,16.1,-,N/A,,Overcast,360,2013-03-23 14:09:00
8:53 AM,18.0,8.1,65,30.22,10.0,North,15.0,-,N/A,,Overcast,360,2013-03-23 14:53:00
9:53 AM,19.9,8.1,60,30.21,10.0,North,17.3,-,N/A,,Mostly Cloudy,360,2013-03-23 15:53:00
10:04 AM,19.4,8.6,63,30.09,10.0,North,16.1,-,N/A,,Overcast,360,2013-03-23 16:04:00
10:53 AM,21.9,9.0,58,30.21,10.0,North,15.0,24.2,N/A,,Overcast,350,2013-03-23 16:53:00
11:17 AM,23.0,8.6,54,30.09,10.0,North,21.9,26.5,N/A,,Overcast,10,2013-03-23 17:17:00
11:53 AM,24.1,9.0,53,30.20,10.0,North,18.4,26.5,N/A,,Overcast,360,2013-03-23 17:53:00
12:53 PM,28.9,7.0,40,30.18,10.0,North,18.4,25.3,N/A,,Partly Cloudy,350,2013-03-23 18:53:00
1:53 PM,30.0,6.1,36,30.17,10.0,North,23.0,29.9,N/A,,Clear,360,2013-03-23 19:53:00
2:53 PM,30.9,3.9,32,30.17,10.0,North,18.4,31.1,N/A,,Clear,360,2013-03-23 20:53:00
3:53 PM,30.9,6.1,35,30.18,10.0,North,13.8,27.6,N/A,,Partly Cloudy,350,2013-03-23 21:53:00
4:53 PM,30.9,7.0,37,30.20,10.0,North,16.1,27.6,N/A,,Partly Cloudy,350,2013-03-23 22:53:00
5:53 PM,28.9,8.1,41,30.22,10.0,NNW,12.7,25.3,N/A,,Clear,340,2013-03-23 23:53:00
6:53 PM,27.0,8.1,45,30.24,10.0,North,12.7,-,N/A,,Clear,360,2013-03-24 00:53:00
7:53 PM,24.1,8.1,51,30.27,10.0,North,10.4,-,N/A,,Clear,360,2013-03-24 01:53:00
8:53 PM,19.9,8.1,60,30.30,10.0,North,5.8,-,N/A,,Clear,350,2013-03-24 02:53:00
9:53 PM,19.0,8.1,62,30.30,10.0,North,6.9,-,N/A,,Clear,350,2013-03-24 03:53:00
10:53 PM,15.1,6.1,68,30.32,10.0,Calm,Calm,-,N/A,,Clear,0,2013-03-24 04:53:00
11:53 PM,14.0,7.0,74,30.32,10.0,Calm,Calm,-,N/A,,Clear,0,2013-03-24 05:53:00